Volver al catálogo

STARLINK-31402

ActivoComunicacionesVLEO
NORAD 59320·PAYLOAD·🇺🇸 United States

Lanzado Mar 25, 2024 desde Cape Canaveral Space Force Station

Loading…

Próximos Pases (próximas 24 horas)

TLE

ActualizadoSource: CelesTrak SupGP

Época: Sep 15, 2026, 02:59 UTC

1 59320C 24057A   26258.12479167  .00167980  00000+0  39567-2 0  2587
2 59320  42.9957 142.7600 0015415 219.9595  55.1417 15.40873099    13

Sigue STARLINK-31402 en tiempo real con AllMySat

Download on the App Store